Temperature
22 22 22 21 21 21 21 20 20 20 20 20 19 19 19 19 19 19 19 19 19 19 19 19 19 18 18 18 18 18 18 18 18 18 18 18 18 18 18 18 18 18 17
22 22 22 21 21 21 21 20 20 20 20 20 20 19 19 19 19 19 19 19 19 19 19 19 19 19 19 18 18 18 18 18 18 18 18 18 18 18 18 18 18 18 18
22 22 22 21 21 21 21 21 21 20 20 20 20 19 19 19 19 19 19 19 19 19 18 18 19 19 19 19 19 18 18 18 18 18 18 18 18 18 18 18 18 18 18
22 22 22 22 22 22 21 21 21 21 20 20 20 20 20 19 19 19 19 19 19 19 19 19 19 18 18 18 18 18 18 18 18 18 18 18 18 18 17 18 18 18 18
23 23 23 22 22 22 22 21 21 21 20 20 20 20 20 19 19 19 19 19 18 18 18 18 18 18 18 18 18 18 18 18 18 18 18 18 18 18 17 17 17 17 17
23 23 23 23 22 22 22 21 21 21 20 20 20 20 20 19 19 19 19 19 19 19 18 18 18 18 18 18 18 18 18 18 18 18 18 18 18 18 17 17 17 17 17
23 23 23 23 22 22 22 22 21 21 21 20 20 20 20 19 19 19 19 19 19 19 19 18 18 18 18 18 18 18 18 18 18 18 18 18 18 18 17 17 17 17 17
23 23 23 23 22 22 22 22 22 21 21 20 20 20 20 19 19 19 19 19 19 19 18 18 18 18 18 18 18 18 18 18 18 18 18 18 18 17 17 17 17 17 16
23 23 23 23 22 22 22 22 22 21 21 20 20 20 20 19 19 19 19 19 19 18 18 18 18 18 18 18 18 18 18 18 18 18 18 18 17 17 17 17 17 16 16
22 23 22 22 22 22 22 22 22 21 21 21 20 20 20 19 19 19 19 19 19 18 18 18 18 18 18 18 18 18 18 18 18 18 17 17 17 17 17 17 17 16 16
22 22 22 22 22 22 22 22 21 21 21 21 20 20 20 19 19 19 19 19 19 18 18 18 18 18 18 18 18 18 18 18 18 17 17 17 17 17 17 17 16 16 16
22 22 22 22 21 21 21 21 21 21 21 21 20 20 20 19 19 19 19 19 18 18 18 18 18 18 18 18 18 18 17 17 17 17 17 17 17 17 17 16 16 16 16
21 21 21 21 21 21 21 21 21 21 21 20 20 20 19 19 19 19 19 18 18 18 18 18 18 18 18 18 17 17 17 17 17 17 17 17 17 17 16 16 16 16 16
20 21 21 21 21 21 21 21 21 20 20 20 20 19 19 19 19 19 19 18 18 18 18 18 18 18 17 17 17 17 17 17 17 17 17 17 16 16 16 16 16 16 15
20 20 20 20 20 20 20 20 20 20 20 19 19 19 19 19 19 19 18 18 18 18 18 18 18 17 17 17 17 17 17 17 17 17 17 16 16 16 16 16 16 15 15
19 19 20 20 20 20 20 20 20 20 20 19 19 19 18 18 18 18 18 18 18 18 18 17 17 17 17 17 17 17 17 17 17 16 16 16 16 16 16 15 15 15 15
19 19 19 19 20 20 20 19 19 19 19 19 19 18 18 18 18 18 18 18 18 17 17 17 17 17 17 17 17 16 16 16 16 16 16 16 16 15 15 15 15 15 15
18 18 19 19 19 19 19 19 19 19 19 19 19 18 18 18 18 18 18 17 17 17 17 17 17 17 17 17 16 16 16 16 16 16 16 15 15 15 15 15 15 14 14
18 18 18 18 18 18 18 18 18 18 18 18 18 18 18 17 17 17 17 17 17 17 17 17 17 17 16 16 16 16 16 16 15 15 15 15 15 15 14 14 14 14 14
17 17 17 18 18 18 18 18 18 18 18 17 17 17 17 17 17 17 17 17 17 17 17 17 17 16 16 16 16 15 15 15 15 15 15 15 15 14 14 14 14 14 14
17 17 17 17 17 17 17 17 17 17 17 17 17 17 17 17 17 17 16 16 16 16 16 16 16 16 16 16 15 15 15 15 15 15 15 15 14 14 14 14 13 13 13
16 16 17 17 17 17 17 17 17 17 17 16 16 16 16 16 16 16 16 16 16 16 16 16 16 16 16 15 15 15 15 14 14 14 14 14 14 14 13 13 13 13 13
16 16 16 16 16 16 16 17 17 16 16 16 16 16 16 16 16 16 16 15 15 15 15 15 15 15 15 15 15 14 14 14 14 14 14 13 13 13 13 13 12 12 12
15 15 15 15 16 16 16 16 16 16 16 15 15 15 15 15 15 15 15 15 15 15 14 14 14 14 14 14 14 14 14 14 13 13 13 13 13 12 12 12 12 12 12
15 15 15 15 15 15 15 16 16 15 15 15 15 15 15 15 15 15 14 14 14 14 14 14 14 14 14 14 14 14 13 13 13 13 13 12 12 12 12 12 12 11 11
15 15 14 14 14 14 15 15 15 15 15 15 15 14 14 14 14 14 14 14 14 14 14 14 13 13 13 13 13 13 13 13 12 12 12 12 12 12 12 11 11 11 11
Wind_Speed
5 4 5 5 5 5 5 5 5 4 4 3 2 2 1 0 0 0 1 1 1 2 2 1 0 1 1 1 2 2 2 1 1 1 1 1 1 1 2 2 2 3 3
5 5 5 5 6 6 6 6 5 5 4 3 3 2 2 1 0 1 1 0 1 2 2 2 1 1 2 2 2 2 1 1 1 2 1 2 2 2 1 1 2 3 2
9 8 7 7 6 6 7 7 6 5 4 4 3 3 3 2 2 1 1 1 0 1 1 1 1 1 2 2 2 2 2 2 1 1 2 1 1 1 2 1 1 1 1
9 8 8 8 8 8 6 5 6 5 4 4 4 4 3 2 1 0 0 1 1 1 1 1 1 1 1 2 2 2 2 3 2 1 1 1 2 1 1 2 1 1 1
11 11 11 10 8 7 6 5 5 5 4 4 5 4 3 2 1 1 1 1 2 2 1 1 1 1 1 1 1 2 2 2 2 2 1 1 1 1 1 2 2 2 1
10 10 9 7 7 6 6 6 6 5 5 5 5 5 5 3 2 1 1 0 1 1 1 1 1 1 1 1 1 1 2 2 2 2 2 2 2 2 2 2 2 2 2
9 9 9 9 9 8 8 8 7 6 5 5 5 5 5 5 4 3 2 1 0 1 1 0 1 1 1 1 1 2 1 1 2 2 1 1 2 2 2 2 2 2 2
6 7 8 9 9 9 9 8 8 7 6 6 5 4 4 3 3 3 2 2 2 2 1 1 1 1 1 1 1 1 1 1 1 1 1 1 1 2 2 3 2 2 2
6 6 7 8 8 8 9 9 9 7 6 6 5 3 3 3 3 3 2 2 2 1 1 1 1 1 1 1 2 1 1 1 1 1 1 1 1 1 2 2 3 3 3
4 4 5 7 7 7 7 7 7 7 6 6 5 5 4 4 4 3 3 3 3 2 2 2 1 1 1 1 1 1 1 1 1 1 1 1 2 1 1 2 2 3 4
3 3 4 5 6 6 7 6 6 5 5 6 5 4 4 4 3 3 3 3 2 2 3 3 2 2 2 2 1 2 1 2 2 2 2 2 2 1 2 2 2 2 3
1 2 4 5 5 5 6 6 5 5 5 5 5 4 4 3 3 3 3 3 3 2 3 2 2 2 2 2 2 2 2 2 3 3 2 3 2 2 2 2 2 2 3
3 3 4 4 4 4 5 5 5 5 4 4 4 4 4 4 4 4 3 3 3 3 2 2 3 3 3 2 3 3 3 3 3 3 3 4 3 3 2 3 3 2 2
3 3 3 2 3 3 3 4 3 3 3 3 3 4 4 4 4 3 3 3 4 3 3 3 3 3 3 3 2 2 3 3 3 3 4 4 4 4 3 3 3 3 2
3 3 2 2 2 2 2 3 3 3 3 3 3 4 3 3 3 3 3 4 4 4 3 2 2 2 2 2 2 2 3 3 3 3 4 4 4 4 4 3 3 3 2
1 2 2 2 1 1 2 2 2 3 3 4 4 3 2 3 3 3 3 3 3 3 2 3 3 3 3 3 3 3 3 3 3 4 4 4 4 4 4 4 4 4 4
1 1 0 0 1 1 2 2 3 3 4 4 3 3 4 3 3 3 3 3 3 3 3 4 3 4 4 4 4 4 3 3 3 3 3 3 3 2 3 3 3 4 4
1 0 1 1 0 0 1 2 2 3 3 2 2 2 3 3 3 2 3 3 3 3 3 3 3 3 4 3 3 3 3 3 3 3 4 4 3 3 2 2 2 3 4
1 1 1 1 1 0 1 2 2 2 3 3 3 3 3 3 2 2 3 3 2 2 2 2 2 2 4 3 3 3 2 3 4 4 3 3 3 3 2 2 3 4 4
1 1 1 1 0 1 1 1 0 1 3 4 4 3 4 4 4 4 3 2 2 2 2 2 2 3 4 3 3 3 3 3 4 3 3 3 3 3 2 2 3 4 4
2 1 0 0 1 1 1 1 1 3 4 3 3 3 4 4 4 3 3 2 2 2 2 3 3 3 4 3 3 3 3 4 4 3 3 3 3 3 4 4 4 5 4
2 1 1 2 2 1 2 2 3 4 3 2 2 3 3 3 3 3 3 3 3 3 3 3 3 3 3 3 3 4 5 4 4 4 4 3 4 4 3 3 3 3 2
2 2 1 2 2 2 2 3 4 3 2 2 3 4 4 3 3 4 3 3 3 3 3 3 3 3 3 3 3 4 4 4 3 3 4 4 3 2 2 2 2 1 1
2 2 1 2 3 3 2 3 3 2 1 2 3 4 3 3 3 3 3 4 4 4 3 3 4 3 3 3 2 2 3 3 2 3 2 2 1 1 1 1 1 1 1
2 2 2 2 4 4 4 3 2 1 1 2 3 3 3 3 3 3 3 4 4 5 5 4 4 4 4 5 4 3 3 3 2 1 0 0 0 1 1 1 1 1 1
2 2 2 3 4 3 4 4 2 1 1 2 3 2 2 2 2 2 2 3 4 4 5 5 5 4 5 4 4 4 4 3 2 2 1 2 2 2 2 2 2 1 2
Wind_Direction
203 184 179 172 163 163 164 171 165 161 144 137 140 137 162 254 15 294 238 206 189 170 155 179 156 138 152 172 152 145 120 87 119 97 9 339 296 234 241 231 224 234 241
183 186 182 175 177 181 182 180 178 171 165 161 158 151 144 135 200 338 9 163 168 170 169 172 169 159 156 152 153 154 142 108 111 135 108 352 350 350 283 230 227 243 239
196 193 191 187 180 184 188 189 185 177 172 154 125 100 79 54 40 13 347 332 173 169 165 158 153 154 163 175 182 167 162 175 125 133 145 151 251 316 343 343 284 253 227
198 194 195 193 191 193 184 179 173 169 164 151 143 139 148 168 203 229 319 355 27 81 133 131 135 133 137 162 187 173 165 163 176 141 141 170 169 181 327 347 356 332 288
197 197 198 197 193 186 177 175 166 166 164 157 155 151 154 174 150 91 60 17 12 25 60 91 103 110 120 130 141 133 150 166 172 172 160 161 136 172 189 286 324 347 324
199 199 195 186 185 176 170 170 168 175 169 166 166 164 169 162 145 136 129 357 353 1 15 74 87 84 99 119 131 126 133 152 153 160 160 166 177 193 187 228 274 301 308
191 192 188 185 184 181 179 176 174 183 179 175 178 176 174 166 175 187 190 187 234 296 293 113 126 127 128 118 113 118 127 153 150 173 190 194 209 192 181 190 242 276 297
185 190 191 187 186 184 180 177 179 186 184 183 190 185 177 177 190 194 188 199 218 236 242 184 169 164 155 141 122 131 166 145 161 189 191 206 228 202 197 190 196 254 288
186 190 184 179 182 180 180 179 178 181 181 183 182 181 183 187 197 197 193 204 219 225 206 187 185 203 182 171 149 156 187 152 182 216 208 225 245 218 215 207 204 207 247
187 185 180 182 180 177 173 170 175 179 179 176 180 186 188 196 196 186 194 205 212 211 190 196 198 200 193 179 170 188 200 181 228 224 215 240 247 239 222 212 216 216 219
181 182 176 171 164 157 157 164 172 171 171 176 178 178 185 196 190 196 211 214 214 209 209 212 210 208 209 197 186 211 210 209 236 238 226 251 251 246 247 229 219 220 212
146 151 144 141 140 148 158 165 172 179 185 180 174 181 188 187 194 206 217 210 211 214 215 214 216 223 223 213 204 223 228 223 235 246 243 256 253 250 251 237 232 228 218
84 93 101 129 145 152 153 159 172 187 189 177 177 183 190 195 205 212 215 215 220 225 220 214 222 232 233 230 225 224 233 238 243 248 247 252 248 257 251 238 237 236 232
85 93 98 113 140 141 145 155 169 174 168 168 181 195 205 208 209 212 209 216 218 220 224 229 234 238 235 231 227 224 235 244 255 257 252 249 241 245 241 237 233 226 230
67 82 96 86 83 102 120 145 159 159 158 160 192 214 212 208 206 206 210 215 221 225 219 225 238 242 234 231 221 233 239 243 258 266 258 250 241 239 234 232 221 212 221
76 65 69 80 94 125 143 148 163 169 159 172 198 206 207 210 215 217 206 206 217 224 218 225 231 240 243 234 215 211 235 240 244 258 265 263 260 255 244 237 227 214 215
103 91 83 219 233 213 174 175 178 170 166 183 199 202 203 210 222 222 211 216 220 215 221 232 227 238 249 243 228 212 218 233 243 247 255 263 273 267 262 255 243 240 229
16 254 217 209 245 243 172 156 156 159 168 183 196 202 201 209 205 201 216 231 228 216 220 231 234 239 254 243 229 223 225 239 247 244 241 247 264 263 251 260 269 270 262
275 270 247 203 156 150 152 134 155 164 182 202 208 208 195 194 193 203 218 223 217 224 230 234 232 249 268 254 230 202 230 246 257 256 251 247 256 264 236 224 253 273 280
321 301 336 74 135 220 135 124 166 187 225 224 219 216 208 205 208 214 221 221 212 226 234 253 246 243 262 267 240 207 225 247 263 270 265 253 251 246 209 213 235 259 273
312 310 343 120 257 251 143 168 245 265 263 246 222 221 217 215 214 214 215 208 212 230 241 249 253 249 258 270 251 221 224 236 248 259 266 266 251 239 226 217 231 244 250
330 319 316 312 306 263 173 203 245 260 271 268 254 246 236 229 223 206 216 210 206 221 243 253 265 268 272 274 272 248 235 232 233 250 256 258 244 237 230 230 250 248 236
318 304 276 304 314 284 206 212 251 256 250 258 261 259 245 230 220 210 216 215 214 223 237 242 256 275 280 277 271 260 248 242 242 254 255 252 238 236 240 246 228 188 193
312 313 307 313 309 300 281 263 267 250 214 264 268 260 246 238 231 216 210 215 220 226 233 241 251 265 271 274 277 273 267 264 265 279 282 262 227 220 234 224 224 210 205
299 307 291 294 301 311 310 306 298 261 242 261 263 262 254 235 232 229 223 219 225 222 222 232 232 242 259 262 253 249 252 249 246 223 237 342 326 293 291 282 267 235 202
291 301 303 294 293 301 308 307 295 253 228 269 274 266 263 256 240 237 257 242 231 230 227 229 229 245 250 256 239 247 249 247 198 165 218 243 243 244 247 246 239 230 227
Height
1511 1513 1514 1516 1517 1519 1520 1521 1523 1524 1525 1526 1528 1529 1530 1531 1531 1532 1532 1532 1533 1533 1533 1533 1533 1533 1533 1533 1534 1534 1535 1535 1536 1537 1537 1537 1537 1537 1538 1538 1538 1539 1539
1510 1511 1513 1515 1516 1518 1519 1521 1522 1524 1525 1527 1528 1529 1530 1531 1532 1532 1533 1533 1533 1533 1533 1533 1533 1533 1532 1532 1533 1533 1534 1535 1535 1536 1536 1537 1538 1537 1537 1537 1537 1537 1538
1507 1509 1511 1513 1515 1517 1518 1520 1522 1524 1525 1527 1528 1529 1530 1531 1532 1532 1532 1533 1533 1533 1533 1533 1533 1532 1532 1532 1533 1533 1533 1534 1535 1536 1537 1536 1536 1536 1537 1536 1536 1536 1537
1504 1506 1509 1511 1513 1515 1518 1520 1522 1523 1525 1526 1527 1528 1529 1530 1531 1532 1532 1532 1533 1533 1533 1533 1533 1532 1532 1532 1532 1533 1533 1534 1534 1535 1535 1536 1536 1536 1535 1536 1536 1535 1535
1501 1503 1505 1508 1511 1514 1517 1519 1521 1523 1524 1526 1527 1528 1529 1530 1531 1532 1532 1532 1532 1533 1533 1533 1533 1532 1532 1532 1532 1533 1533 1533 1533 1534 1534 1534 1535 1535 1535 1534 1534 1534 1534
1498 1500 1504 1507 1510 1513 1515 1518 1519 1521 1523 1525 1526 1527 1528 1529 1530 1531 1532 1532 1532 1532 1533 1533 1532 1532 1532 1532 1532 1532 1532 1532 1533 1533 1533 1533 1533 1533 1533 1533 1532 1532 1532
1495 1498 1501 1504 1507 1510 1513 1515 1518 1520 1522 1523 1525 1526 1527 1529 1529 1530 1531 1531 1532 1532 1532 1532 1532 1532 1532 1532 1532 1532 1532 1532 1532 1532 1532 1532 1532 1532 1532 1531 1531 1530 1530
1493 1496 1498 1501 1504 1507 1510 1513 1515 1517 1520 1522 1524 1525 1527 1528 1528 1529 1530 1531 1531 1531 1532 1532 1532 1531 1532 1531 1531 1531 1531 1531 1531 1531 1531 1531 1530 1530 1530 1530 1530 1528 1528
1492 1494 1496 1498 1501 1504 1507 1510 1513 1515 1518 1520 1522 1524 1525 1527 1527 1528 1529 1529 1530 1530 1531 1531 1531 1530 1530 1530 1530 1530 1530 1530 1529 1529 1529 1529 1529 1528 1528 1528 1528 1528 1525
1491 1492 1494 1496 1499 1502 1505 1508 1511 1513 1516 1518 1520 1522 1523 1525 1526 1527 1527 1528 1528 1529 1529 1529 1529 1529 1529 1529 1528 1528 1528 1528 1528 1528 1527 1527 1527 1526 1526 1525 1525 1524 1524
1489 1491 1493 1495 1497 1500 1503 1506 1509 1511 1514 1516 1518 1520 1521 1523 1524 1524 1525 1526 1527 1527 1527 1527 1527 1527 1527 1527 1527 1526 1526 1526 1526 1526 1525 1525 1525 1524 1523 1523 1522 1522 1521
1490 1491 1492 1494 1497 1499 1502 1504 1507 1510 1512 1514 1516 1518 1519 1520 1521 1522 1523 1524 1525 1525 1525 1525 1525 1525 1525 1525 1525 1524 1524 1524 1523 1523 1523 1522 1522 1521 1521 1520 1520 1519 1518
1490 1491 1493 1495 1497 1499 1501 1503 1506 1508 1510 1512 1514 1515 1516 1518 1519 1519 1520 1521 1522 1523 1523 1523 1523 1523 1523 1523 1522 1522 1522 1521 1521 1521 1520 1520 1520 1519 1518 1517 1516 1516 1515
1492 1492 1494 1495 1497 1499 1501 1503 1505 1508 1509 1510 1511 1513 1514 1515 1516 1517 1518 1519 1520 1520 1520 1520 1520 1520 1520 1520 1520 1519 1519 1518 1518 1518 1518 1517 1517 1516 1515 1514 1513 1512 1512
1493 1494 1495 1495 1497 1498 1500 1502 1504 1505 1507 1508 1509 1510 1511 1512 1513 1514 1515 1516 1516 1517 1517 1517 1517 1517 1517 1517 1516 1516 1516 1515 1515 1514 1514 1514 1513 1512 1512 1511 1510 1509 1508
1494 1494 1495 1495 1496 1497 1499 1500 1502 1503 1504 1505 1507 1508 1509 1509 1510 1511 1512 1512 1513 1513 1514 1514 1514 1514 1514 1514 1513 1513 1512 1512 1511 1511 1510 1510 1509 1509 1508 1507 1506 1506 1504
1494 1494 1495 1495 1496 1497 1498 1499 1500 1501 1502 1503 1504 1505 1505 1506 1507 1507 1508 1509 1509 1510 1510 1510 1510 1510 1510 1510 1510 1510 1509 1508 1507 1507 1506 1506 1505 1505 1504 1503 1502 1501 1500
1494 1494 1494 1495 1495 1496 1497 1497 1499 1499 1500 1501 1501 1502 1503 1503 1503 1504 1504 1505 1506 1506 1506 1506 1507 1507 1507 1507 1506 1506 1505 1504 1503 1503 1502 1502 1501 1500 1500 1499 1498 1497 1496
1493 1493 1493 1494 1494 1494 1495 1495 1496 1497 1497 1498 1498 1499 1499 1500 1500 1500 1501 1502 1503 1503 1503 1503 1502 1502 1502 1502 1502 1502 1501 1500 1499 1499 1498 1497 1497 1496 1496 1495 1494 1493 1492
1492 1492 1492 1492 1492 1492 1493 1493 1493 1494 1494 1495 1495 1496 1497 1497 1497 1497 1498 1499 1499 1499 1499 1499 1499 1499 1499 1498 1498 1498 1496 1495 1494 1494 1493 1493 1492 1492 1491 1490 1489 1488 1487
1491 1491 1491 1490 1491 1491 1491 1491 1491 1491 1492 1492 1493 1493 1493 1493 1494 1494 1494 1495 1495 1495 1495 1495 1495 1495 1494 1494 1493 1493 1492 1491 1490 1489 1488 1488 1487 1487 1486 1485 1485 1484 1483
1490 1490 1489 1489 1489 1489 1489 1489 1489 1489 1489 1489 1489 1490 1490 1490 1490 1490 1490 1491 1491 1491 1491 1491 1490 1490 1489 1489 1488 1488 1487 1486 1485 1484 1484 1483 1483 1482 1481 1481 1480 1480 1479
1489 1488 1488 1487 1487 1487 1487 1486 1486 1486 1486 1486 1486 1486 1486 1486 1485 1486 1485 1486 1487 1487 1486 1486 1485 1485 1485 1484 1484 1484 1483 1482 1481 1480 1480 1479 1478 1478 1477 1477 1476 1475 1474
1487 1486 1486 1484 1484 1484 1484 1483 1483 1483 1482 1481 1482 1482 1482 1481 1481 1481 1481 1482 1482 1482 1482 1481 1480 1480 1480 1480 1480 1479 1479 1478 1477 1476 1476 1475 1474 1474 1473 1472 1472 1471 1470
1485 1484 1483 1482 1481 1481 1480 1480 1480 1479 1478 1478 1479 1479 1478 1477 1477 1477 1477 1477 1477 1478 1477 1477 1477 1476 1475 1476 1476 1475 1474 1474 1473 1472 1471 1471 1470 1469 1468 1468 1468 1467 1467
1482 1481 1481 1480 1479 1478 1477 1477 1476 1476 1475 1475 1475 1475 1474 1474 1473 1473 1473 1473 1473 1473 1473 1473 1473 1472 1472 1472 1472 1471 1471 1470 1470 1469 1467 1466 1465 1464 1464 1464 1463 1463 1463